Location: Kampung Segan
(3.1399°N, 113.1002°E)
Time: 21:36:36
(UTC+00:00)

Centaur D-1A AC-31 - Visible Passes

Search period start: 05 November 2024 00:00
Search period end: 15 November 2024 00:00
Orbit: 563 x 36350 km, 27.9° (Epoch: 04 November)

Date Brightness Start Highest point End Pass type
(mag) Time Alt. Az. Time Alt. Az. Time Alt. Az.
05 Nov 5.9 20:23:06 26° NW 01:23:53 77° NNW 06:28:24 10° SE visible
06 Nov 5.7 18:01:42 46° NNE 18:01:42 46° NNE 03:57:19 10° SE visible
07 Nov 6.6 15:40:19 12° ENE 15:40:19 12° ENE 15:42:46 10° ENE visible
07 Nov 8.6 19:49:38 10° ENE 23:46:20 36° E 01:14:27 10° ESE visible
09 Nov 5.5 21:49:12 10° WNW 00:36:13 65° NW 07:54:53 10° SSE visible
10 Nov 5.8 19:25:26 40° NNW 19:46:16 50° NNE 05:26:39 10° SE visible
11 Nov 6.1 17:04:02 35° NE 17:04:02 35° NE 02:53:19 10° ESE visible
12 Nov 9.5 20:12:36 10° E 22:45:02 24° E 23:59:45 10° ESE visible
